Weather Roundup
Issued by NWS

Home | Current Version | Previous Version | Text Only | Print | Product List | Glossary On
Versions: 1 2 3 4 5 6 7 8 9 10 11 12 13 14 15 16 17 18 19 20 21 22 23 24 25 26 27 28 29 30 31 32 33 34 35 36 37 38 39 40 41 42 43 44 45 46 47 48 49 50
000
NZUS93 KARX 032259
HRRWXR

CURRENT HOURLY OBSERVATIONS ACROSS
MUCH OF THE UPPER MISSISSIPPI VALLEY
NATIONAL WEATHER SERVICE LA CROSSE WI
600 PM CDT TUE MAY 03 2016


...SOUTHEAST MINNESOTA...


CITY           SKY/WX    TMP DP  RH WIND       PRES   REMARKS
ROCHESTER      MOSUNNY   67  42  40 W18       29.72F
ROCHESTER/MAYO MOCLDY    68  38  33 W16G28    29.70F
WINONA         CLOUDY    70  36  28 W13G21    29.69F
AUSTIN         MOSUNNY   66  41  39 W12G20    29.74F
ALBERT LEA     PTSUNNY   68  43  40 W9G18     29.74F
DODGE CENTER   SUNNY     66  39  37 W18G25    29.71F
PRESTON        MOSUNNY   65  39  38 W17G28    29.74F
OWATONNA       CLOUDY    70  37  30 W18G25    29.72F
FARIBAULT      NOT AVBL
$$

...ELSEWHERE IN MINNESOTA...


CITY           SKY/WX    TMP DP  RH WIND       PRES   REMARKS
MINNEAPOLIS    MOSUNNY   71  40  32 W15G23    29.66F
INTNL FALLS    MOSUNNY   58  32  37 NE18G28   29.83R
DULUTH         MOSUNNY   64  28  25 N17G26    29.70R
RED WING       MOSUNNY   72  36  26 NW15G22   29.65F
REDWOOD FALLS  MOSUNNY   74  28  18 NW22G37   29.73F
MANKATO        CLOUDY    70  37  30 W14G24    29.71F
WORTHINGTON    PTSUNNY   69  45  41 W17       29.80F
FAIRMONT       MOSUNNY   72  28  20 W21G26    29.76F
$$

...SOUTHWEST WISCONSIN...


CITY           SKY/WX    TMP DP  RH WIND       PRES   REMARKS
LA CROSSE      CLOUDY    69  36  29 W15       29.68F
PRAIRIE DU CHI MOSUNNY   68  35  28 W15G24    29.75F
BOSCOBEL       LGT RAIN  70  36  28 W16G26    29.74F
LONE ROCK      NOT AVBL
PLATTEVILLE    CLOUDY    66  38  35 W20G29    29.78F
FORT MC COY    CLOUDY    67  36  31 W15G24    29.70F
MAUSTON-NEW LI CLOUDY    66  37  34 W16G22    29.69F
VIROQUA        CLOUDY    65  35  32 W22G32    29.73F
WIS DELLS      CLOUDY    65  33  29 W8G16     29.71F
$$

...ELSEWHERE IN WISCONSIN...


CITY           SKY/WX    TMP DP  RH WIND       PRES   REMARKS
MILWAUKEE      CLOUDY    66  33  29 W13G25    29.73F
MADISON        CLOUDY    65  37  35 W6        29.73F
GREEN BAY      CLOUDY    64  37  36 W17       29.68R
EAU CLAIRE     NOT AVBL
BLACK RVR FLS  MOCLDY    68  32  27 W12G26    29.67F
MEDFORD        RAIN      52  46  79 NW6G25    29.68R
WAUSAU         LGT RAIN  58  44  60 NE6       29.66F
WIS RAPIDS     LGT RAIN  62  36  37 W15G23    29.70R
MARSHFIELD     CLOUDY    63  38  39 W7        29.64F
RICE LAKE      LGT RAIN  59  45  58 W9G26     29.67R
$$

...NORTHEAST IOWA...


CITY           SKY/WX    TMP DP  RH WIND       PRES   REMARKS
WATERLOO       MOSUNNY   67  40  37 W14G23    29.78F
DUBUQUE        PTSUNNY   64  38  38 W17G26    29.80F
DECORAH        PTSUNNY   66  37  34 W9G25     29.75F
MASON CITY     SUNNY     67  44  43 W23G35    29.79F
CHARLES CITY   PTSUNNY   68  41  37 W22G30    29.78F
OELWEIN        PTSUNNY   66  41  39 W22G30    29.79F
$$

...ELSEWHERE IN IOWA...


CITY           SKY/WX    TMP DP  RH WIND       PRES   REMARKS
DES MOINES     PTSUNNY   69  42  37 W18G28    29.87F
IOWA CITY      CLOUDY    65  42  43 W15       29.85F
FORT DODGE     MOSUNNY   66  46  48 W13G26    29.85F
MARSHALLTOWN   CLOUDY    67  44  43 W20G29    29.82F
CEDAR RAPIDS   CLOUDY    65  43  44 W17       29.82F
$$

...NORTHERN ILLINOIS...


CITY           SKY/WX    TMP DP  RH WIND       PRES   REMARKS
CHICAGO-OHARE  CLOUDY    64  38  38 W14       29.79F
CHICAGO-MIDWAY PTSUNNY   67  36  31 W18       29.80F
MOLINE         CLOUDY    67  39  35 W15       29.83F
ROCKFORD       CLOUDY    65  40  39 W16G22    29.80F
PEORIA         MOSUNNY   66  37  34 W10       29.87F
$$

NOTE: "FAIR" INDICATES FEW OR NO CLOUDS BELOW 12,000 FEET WITH NO
SIGNIFICANT WEATHER AND/OR OBSTRUCTIONS TO VISIBILITY. WIND
SPEEDS ARE IN MILES-PER-HOUR.




USA.gov is the U.S. government's official web portal to all federal, state and local government web resources and services.